This is the latest recevied weather packets stored in our database for station/object W1LBM. If no packets are shown the sender has not sent any weather packets the latest 10 day(s).
| Time | Temp. | Humidity | Pressure | Rain* | Wind** | Luminosity | Snow |
|---|---|---|---|---|---|---|---|
| 1777547068 | 7.78° C | 99% | 1010.8 hPa | 0 mm | - | 11 W/m² | - |
| 1777546766 | 7.78° C | 99% | 1010.7 hPa | 0 mm | - | 15 W/m² | - |
| 1777546462 | 7.78° C | 99% | 1010.7 hPa | 0 mm | - | 17 W/m² | - |
| 1777546159 | 7.78° C | 99% | 1010.7 hPa | 0 mm | - | 20 W/m² | - |
| 1777545855 | 7.78° C | 99% | 1010.7 hPa | 0 mm | - | 22 W/m² | - |
| 1777545552 | 7.78° C | 99% | 1010.6 hPa | 0 mm | - | 18 W/m² | - |
| 1777545248 | 7.22° C | 99% | 1010.6 hPa | 0 mm | - | 19 W/m² | - |
| 1777544946 | 7.22° C | 99% | 1010.4 hPa | 0 mm | - | 19 W/m² | - |
| 1777544642 | 7.78° C | 99% | 1010.7 hPa | 0 mm | - | 11 W/m² | - |
| 1777544338 | 7.78° C | 99% | 1010.3 hPa | 0 mm | - | 7 W/m² | - |
| 1777544036 | 7.78° C | 99% | 1010.4 hPa | 0 mm | - | 6 W/m² | - |
| 1777543733 | 7.78° C | 99% | 1010 hPa | 0 mm | - | 7 W/m² | - |
| 1777543429 | 7.78° C | 99% | 1010.1 hPa | 0 mm | - | 4 W/m² | - |
| 1777543124 | 7.78° C | 99% | 1010.3 hPa | 0 mm | - | 3 W/m² | - |
| 1777542821 | 7.78° C | 99% | 1010.6 hPa | 0 mm | - | 2 W/m² | - |
| 1777542518 | 7.78° C | 99% | 1010.5 hPa | 0 mm | - | 1 W/m² | - |
| 1777542213 | 7.78° C | 99% | 1010.4 hPa | 0 mm | - | 1 W/m² | - |
| 1777541911 | 7.78° C | 99% | 1010.7 hPa | 0 mm | - | 0 W/m² | - |
| 1777541609 | 7.22° C | 99% | 1010.8 hPa | 1.78 mm | - | 0 W/m² | - |
| 1777541305 | 7.22° C | 99% | 1011 hPa | 1.78 mm | - | 0 W/m² | - |
| 1777541001 | 7.22° C | 99% | 1010.9 hPa | 0 mm | - | 0 W/m² | - |
| 1777540698 | 7.22° C | 99% | 1011 hPa | 1.27 mm | - | 0 W/m² | - |
| 1777540395 | 7.22° C | 99% | 1011 hPa | 1.27 mm | - | 0 W/m² | - |
| 1777540092 | 7.22° C | 99% | 1010.9 hPa | 0 mm | - | 0 W/m² | - |
| 1777539791 | 7.22° C | 99% | 1010.8 hPa | 0 mm | - | 0 W/m² | - |
* Rain latest hour (hover to see other rain measurements)
** Current wind speed in m/s (hover to see current wind gust speed)